Shirley, NY

3:47 AM EDT on June 25, 2017 (GMT -0400)
Brookhaven

Weather History for KHWV - December, 2013

Change the Weather History Date:

Sunday, December 8, 2013

  Actual Average (KISP) Record (KISP)
Temperature  
Mean Temperature 28 °F -  
Max Temperature 33 °F 44 °F 59 °F (1991)
Min Temperature 24 °F 30 °F 18 °F (2008)
Degree Days  
Heating Degree Days 36    
Moisture  
Dew Point 23 °F    
Average Humidity 76    
Maximum Humidity 93    
Minimum Humidity 56    
Precipitation  
Precipitation 0.00 in - - ()
Sea Level Pressure  
Sea Level Pressure 30.51 in    
Wind  
Wind Speed 5 mph (North)    
Max Wind Speed 9 mph    
Max Gust Speed -    
Visibility 7 miles    
Events Rain , Snow    
Averages and records for this station are not official NWS values.
T = Trace of Precipitation, MM = Missing Value Source: NWS Daily Summary

Daily Weather History Graph

Daily Weather History Graph

Search for Another Location

Airport or City:

Trip Planner

Search our weather history database for the weather conditions in past years. The results will help you decide how hot, cold, wet, or windy it might be!

Date:

Astronomy

Dec. 08, 2013 Rise Set
Actual Time 7:03 AM EST 4:23 PM EST
Civil Twilight 6:32 AM EST 4:54 PM EST
Nautical Twilight 5:58 AM EST 5:28 PM EST
Astronomical Twilight 5:24 AM EST 6:01 PM EST
Moon 11:20 AM EST (12/8) 11:11 PM EST (12/8)
Length of Visible Light 10h 21m
Length of Day
9h 20m
Waxing Crescent, 40% of the Moon is Illuminated
Dec 8
Waxing Crescent
Dec 9
First Quarter
Dec 17
Full
Dec 25
Last Quarter
Jan 1
New

Hourly Weather History & Observations

Time (EST) Temp. Windchill Dew Point Humidity Pressure Visibility Wind Dir Wind Speed Gust Speed Precip Events Conditions
12:56 AM 30.0 °F 23.2 °F 17.1 °F 59% 30.50 in 10.0 mi NNW 6.9 mph - N/A   Clear
1:56 AM 30.0 °F 21.7 °F 17.1 °F 59% 30.51 in 10.0 mi NNW 9.2 mph - N/A   Clear
2:56 AM 28.9 °F 21.9 °F 17.1 °F 61% 30.52 in 10.0 mi NNW 6.9 mph - N/A   Clear
3:56 AM 27.0 °F 21.6 °F 17.1 °F 66% 30.53 in 10.0 mi NNW 4.6 mph - N/A   Clear
4:56 AM 25.0 °F 18.1 °F 17.1 °F 72% 30.54 in 10.0 mi NNW 5.8 mph - N/A   Clear
5:56 AM 25.0 °F 19.3 °F 17.1 °F 72% 30.57 in 10.0 mi NNW 4.6 mph - N/A   Clear
6:56 AM 24.1 °F - 18.0 °F 77% 30.56 in 10.0 mi Calm Calm - N/A   Clear
7:56 AM 27.0 °F - 21.9 °F 81% 30.58 in 10.0 mi Calm Calm - N/A   Clear
8:56 AM 30.9 °F - 21.9 °F 69% 30.61 in 10.0 mi Calm Calm - N/A   Clear
9:56 AM 32.0 °F 27.5 °F 19.9 °F 61% 30.59 in 10.0 mi Variable 4.6 mph - N/A   Clear
10:56 AM 33.1 °F 30.0 °F 19.0 °F 56% 30.58 in 10.0 mi Variable 3.5 mph - N/A   Mostly Cloudy
11:56 AM 33.1 °F 28.7 °F 19.9 °F 59% 30.57 in 10.0 mi North 4.6 mph - N/A   Overcast
12:56 PM 33.1 °F 30.0 °F 21.0 °F 61% 30.53 in 10.0 mi Variable 3.5 mph - N/A   Overcast
1:56 PM 33.1 °F - 19.9 °F 59% 30.53 in 10.0 mi Calm Calm - N/A   Overcast
2:56 PM 33.1 °F - 19.0 °F 56% 30.53 in 10.0 mi Calm Calm - N/A   Overcast
3:56 PM 33.1 °F - 21.0 °F 61% 30.53 in 10.0 mi Calm Calm - N/A   Overcast
4:56 PM 30.9 °F 27.5 °F 21.9 °F 69% 30.55 in 4.0 mi North 3.5 mph - 0.00 in Snow Light Snow
5:08 PM 30.9 °F 27.5 °F 23.0 °F 72% 30.53 in 2.5 mi NNE 3.5 mph - 0.00 in Snow Light Snow
5:41 PM 30.0 °F 26.5 °F 24.1 °F 79% 30.52 in 1.5 mi NNE 3.5 mph - 0.00 in Snow Light Snow
5:56 PM 30.0 °F 23.2 °F 25.0 °F 82% 30.53 in 2.0 mi North 6.9 mph - 0.00 in Snow Light Snow
6:56 PM 28.9 °F 23.9 °F 26.1 °F 89% 30.53 in 2.0 mi Variable 4.6 mph - 0.00 in Snow Light Snow
7:05 PM 28.9 °F 23.9 °F 26.1 °F 89% 30.53 in 1.8 mi Variable 4.6 mph - 0.00 in Snow Light Snow
7:17 PM 28.9 °F 25.2 °F 26.1 °F 89% 30.52 in 3.0 mi Variable 3.5 mph - 0.00 in Snow Light Snow
7:32 PM 30.0 °F - 26.1 °F 85% 30.51 in 7.0 mi Calm Calm - 0.00 in   Overcast
7:56 PM 30.0 °F 26.5 °F 26.1 °F 85% 30.51 in 10.0 mi Variable 3.5 mph - 0.00 in   Overcast
8:56 PM 30.0 °F 26.5 °F 27.0 °F 88% 30.49 in 6.0 mi Variable 3.5 mph - N/A   Overcast
9:56 PM 30.9 °F 26.2 °F 27.0 °F 85% 30.44 in 7.0 mi Variable 4.6 mph - 0.00 in   Overcast
10:20 PM 30.9 °F 25.2 °F 27.0 °F 85% 30.42 in 10.0 mi Variable 5.8 mph - N/A   Overcast
10:52 PM 30.2 °F 25.4 °F 28.4 °F 93% 30.41 in 3.0 mi Variable 4.6 mph - 0.00 in Rain Light Freezing Rain
10:56 PM 30.9 °F 26.2 °F 28.0 °F 89% 30.42 in 3.0 mi Variable 4.6 mph - 0.00 in Rain Light Freezing Rain
11:05 PM 32.0 °F 28.7 °F 28.0 °F 85% 30.41 in 2.5 mi Variable 3.5 mph - 0.00 in Rain Light Freezing Rain
11:15 PM 32.0 °F 26.4 °F 28.9 °F 88% 30.42 in 3.0 mi Variable 5.8 mph - 0.00 in Rain Light Freezing Rain
11:29 PM 32.0 °F 28.7 °F 28.9 °F 88% 30.42 in 4.0 mi Variable 3.5 mph - 0.00 in Rain Light Freezing Rain
11:47 PM 32.0 °F 27.5 °F 28.9 °F 88% 30.41 in 4.0 mi NNE 4.6 mph - 0.00 in Rain Light Freezing Rain
11:56 PM 32.0 °F 26.4 °F 30.0 °F 92% 30.41 in 5.0 mi Variable 5.8 mph - 0.00 in Rain Light Freezing Rain